Regional Weather Roundup
Issued by NWS Northern Indiana

Home | Current Version | Previous Version | Text Only | Print | Product List | Glossary On
Versions: 1 2 3 4 5 6 7 8 9 10 11 12 13 14 15 16 17 18 19 20 21 22 23 24 25 26 27 28 29 30 31 32 33 34 35 36 37 38 39 40 41 42 43 44 45 46 47 48 49 50
000
ASUS43 KIWX 280510
RWRIWX

KIWX WEATHER ROUNDUP
NATIONAL WEATHER SERVICE NORTHERN INDIANA
100 AM EDT SUN MAY 28 2017

NOTE: "FAIR" INDICATES FEW OR NO CLOUDS BELOW 12,000 FEET WITH NO
SIGNIFICANT WEATHER AND/OR OBSTRUCTIONS TO VISIBILITY.

* THESE STATIONS ARE NOT UNDER NWS QUALITY CONTROL. THEY ALSO MAY NOT
  REPORT WEATHER SUCH AS PRECIPITATION OR FOG.

INZ001>027-280600-
NORTHERN INDIANA

CITY           SKY/WX    TMP DP  RH WIND       PRES   REMARKS
GARY*          MOCLDY    58  56  91 CALM      29.83F
VALPARAISO     PTCLDY    61  58  90 NE5       29.83F
MICHIGAN CITY* CLOUDY    55  55 100 CALM      29.84F
LAPORTE*       PTCLDY    61  58  90 NE5       29.83F
KNOX*          CLOUDY    61  59  94 E3        29.81F
SOUTH BEND     PTCLDY    61  58  90 CALM      29.84F
GOSHEN         CLEAR     64  58  80 SE6       29.84F
MONTICELLO*    CLOUDY    60  59  96 CALM      29.81F
LOGANSPORT*    CLOUDY    63  61  94 CALM      29.83F
ROCHESTER*     CLOUDY    63  63 100 E8        29.81F
WARSAW*        CLEAR     63  59  88 E7        29.83F
ANGOLA*        CLEAR     61  50  67 CALM      29.86F
FORT WAYNE     CLOUDY    61  57  87 NE7       29.84F
HUNTINGTON*    PTCLDY    62  61  96 E3        29.83F
PERU/GRISSOM   PTCLDY    63  63 100 E6        29.79F
MARION*        PTCLDY    64  61  88 E6        29.83F

$$
INZ028>050-280600-
CENTRAL INDIANA

CITY           SKY/WX    TMP DP  RH WIND       PRES   REMARKS
LAFAYETTE      CLOUDY    60  60 100 CALM      29.80F
KOKOMO*        CLEAR     62  61  96 E6        29.81F
MUNCIE*        CLOUDY    67  63  87 CALM      29.83F
INDIANAPOLIS   CLOUDY    68  62  81 E5        29.80F

$$
MIZ043>046-050>051-056>058-064>065-071>073-077>080-280600-
SOUTHWEST LOWER MICHIGAN

CITY           SKY/WX    TMP DP  RH WIND       PRES   REMARKS
BATTLE CREEK   CLEAR     63  57  81 SE5       29.86F
BENTON HARBOR  PTCLDY    57  54  89 CALM      29.83F
COLDWATER*     CLOUDY    57  57  99 CALM      29.86F
HILLSDALE*     CLOUDY    55  54  94 CALM      29.88R
HOLLAND        CLOUDY    58  54  86 CALM      29.85F
GRAND RAPIDS   CLEAR     60  57  89 CALM      29.85F
KALAMAZOO      PTCLDY    63  57  81 CALM      29.84F
STURGIS*       CLEAR     59  57  94 E6        29.84F
THREE RIVERS*  FAIR      60  58  94 CALM      29.85F

$$
OHZ001>008-015>018-024>025-280600-
NORTHWEST OHIO

CITY           SKY/WX    TMP DP  RH WIND       PRES   REMARKS
WAUSEON*       MOCLDY    59  55  88 CALM      29.86S
DEFIANCE       PTCLDY    58  54  86 NE5       29.86R
FINDLAY        CLOUDY    63  52  67 E8        29.83F
TOLEDO EXPRESS CLOUDY    60  54  80 CALM      29.85S
TOLEDO METCALF CLOUDY    63  54  72 NE3       29.86R
LIMA           PTCLDY    62  57  83 E8        29.83F

$$
AND FOR LAKE MICHIGAN COASTAL AND OPEN LAKE BUOY OBSERVATIONS

STATION/POSITION TEMP    WIND        PRES    VSBY  WAVE
                 AIR SEA DIR/SP/G                  HT/PER
                 (F)     (DEG/KT/KT) (MB)    (MI)  (FT/S)
CALUMET HARBOR    57      10/  2/  2 1009.6F
MICHIGAN CITY     60      40/  4/  5   N/A
BURNS HARBOR      62      90/  4/  5 1010.5F
SOUTH LAKE BUOY   53 50  100/  8/  8 1010.6          0
4 MI NW BRIDGMAN  60 59   90/  4/  6 1010.1          0
MICHIGAN CITY     57 56   70/  4/  6   N/A           0

$$
&&




USA.gov is the U.S. government's official web portal to all federal, state and local government web resources and services.